Location: Nelson
(41.2830°S, 173.2830°E)
Time: 15:28:47
(UTC+12:00)

USA 234 - Pass Details

Date: 14 May 2021
Orbit: 1102 x 1105 km, 123.0° (Epoch: 18 April)

Event Time Altitude Azimuth Distance (km) Brightness Sun altitude
Exits shadow 18:02:40 - 133° (SE) 3,301 5.2 -8.5°
Reaches altitude 10° 18:03:29 10° 133° (SE) 2,990 5.0 -8.6°
Maximum altitude 18:10:08 89° 41° (NE) 1,119 3.3 -9.8°
Drops below altitude 10° 18:16:43 10° 311° (NW) 2,969 6.6 -11.0°
Sets 18:19:11 0° 311° (NW) 3,922 7.4 -11.5°
